Terminal Aerodrome Forecast
Issued by NWS Cleveland, OH

Home | Current Version | Previous Version | Graphics & Text | Print | Product List | Glossary On
Versions: 1 2 3 4 5 6 7 8 9 10 11 12 13 14 15 16 17 18 19 20 21 22 23 24 25 26 27 28 29 30
000
FTUS41 KCLE 180100 AAA
TAFERI
TAF AMD
KERI 180158Z 1802/1824 22018G28KT 3SM -SHSN BLSN OVC030
      TEMPO 1802/1804 2SM -SN
     FM180400 24018G28KT 1SM -SHSN BLSN BKN008 OVC012
     FM180800 22020G30KT 2SM -SHSN BLSN OVC008
     FM181200 24020G30KT 1SM -SHSN BLSN VV008=

USA.gov is the U.S. government's official web portal to all federal, state and local government web resources and services.